When you browse on this site, cookies collect data to enhance your experience and personalize the content and advertising you see.
Visit our Privacy Policy to learn more. By continuing to use the site, you agree to this use of cookies and data.
  • In Italy
  • List of Countries
  • For 7 days
  • Water Temperature
  • Satellite Maps
  • Weather Map
  • Weather Widgets
  • user-avatar
    Login

    Hourly Weather Hobart

    Today, 17 November, Saturday

    Time Temperature Precipitation Wind Pressure Humidity
    00:00 +5°C° 0 mm 2 mps 753 mmHg 94%
    01:00 +5°C° 0 mm 2 mps 753 mmHg 95%
    02:00 +4°C° 0 mm 2 mps 753 mmHg 95%
    03:00 +4°C° 0 mm 2 mps 753 mmHg 95%
    04:00 +4°C° 0 mm 2 mps 753 mmHg 95%
    05:00 +6°C° 0 mm 2 mps 753 mmHg 88%
    06:00 +8°C° 0 mm 2 mps 753 mmHg 81%
    07:00 +10°C° 0 mm 2 mps 753 mmHg 74%
    08:00 +13°C° 0 mm 2 mps 754 mmHg 65%
    09:00 +14°C° 0 mm 3 mps 754 mmHg 56%
    10:00 +18°C° 0 mm 3 mps 754 mmHg 47%
    11:00 +19°C° 0 mm 3 mps 754 mmHg 45%
    12:00 +20°C° 0 mm 4 mps 754 mmHg 43%
    13:00 +20°C° 0 mm 4 mps 754 mmHg 41%
    14:00 +20°C° 0 mm 4 mps 754 mmHg 43%
    15:00 +20°C° 0 mm 4 mps 754 mmHg 44%
    16:00 +19°C° 0 mm 4 mps 754 mmHg 46%
    17:00 +17°C° 0 mm 4 mps 754 mmHg 55%
    18:00 +14°C° 0 mm 4 mps 754 mmHg 64%
    19:00 +12°C° 0 mm 3 mps 755 mmHg 73%
    20:00 +11°C° 0 mm 3 mps 755 mmHg 80%
    21:00 +9°C° 0 mm 2 mps 755 mmHg 87%
    22:00 +8°C° 0 mm 2 mps 756 mmHg 93%
    23:00 +9°C° 0 mm 1 mps 755 mmHg 94%

    Tomorrow, 18 November, Sunday

    Time Temperature Precipitation Wind Pressure Humidity
    00:00 +8°C° 0 mm 1 mps 755 mmHg 96%
    01:00 +8°C° 0 mm 1 mps 755 mmHg 97%
    02:00 +8°C° 0 mm 1 mps 755 mmHg 97%
    03:00 +8°C° 0 mm 1 mps 755 mmHg 98%
    04:00 +8°C° 0 mm 1 mps 755 mmHg 98%
    05:00 +9°C° 0 mm 1 mps 755 mmHg 92%
    06:00 +11°C° 0 mm 1 mps 755 mmHg 85%
    07:00 +12°C° 0 mm 1 mps 756 mmHg 79%
    08:00 +15°C° 0 mm 1 mps 755 mmHg 68%
    09:00 +18°C° 0 mm 1 mps 755 mmHg 58%
    10:00 +21°C° 0 mm 1 mps 755 mmHg 47%
    11:00 +21°C° 0 mm 2 mps 755 mmHg 43%
    12:00 +22°C° 0 mm 3 mps 755 mmHg 39%
    13:00 +25°C° 0 mm 3 mps 754 mmHg 35%
    14:00 +23°C° 0 mm 4 mps 754 mmHg 38%
    15:00 +22°C° 0 mm 4 mps 754 mmHg 42%
    16:00 +22°C° 0 mm 4 mps 754 mmHg 45%
    17:00 +20°C° 0 mm 4 mps 754 mmHg 55%
    18:00 +18°C° 0 mm 4 mps 754 mmHg 65%
    19:00 +15°C° 0 mm 4 mps 754 mmHg 75%
    20:00 +13°C° 0 mm 4 mps 754 mmHg 82%
    21:00 +12°C° 0 mm 3 mps 754 mmHg 89%
    22:00 +10°C° 0 mm 3 mps 754 mmHg 97%
    23:00 +10°C° 0 mm 3 mps 754 mmHg 97%

    Day after tomorrow, 19 November, Monday

    Time Temperature Precipitation Wind Pressure Humidity
    00:00 +10°C° 0 mm 3 mps 754 mmHg 97%
    01:00 +9°C° 0 mm 3 mps 753 mmHg 98%
    02:00 +9°C° 0 mm 3 mps 753 mmHg 98%
    03:00 +9°C° 0 mm 3 mps 753 mmHg 98%
    04:00 +8°C° 0 mm 3 mps 752 mmHg 98%
    05:00 +10°C° 0 mm 4 mps 752 mmHg 89%
    06:00 +12°C° 0 mm 4 mps 752 mmHg 79%
    07:00 +13°C° 0 mm 4 mps 752 mmHg 70%
    08:00 +16°C° 0 mm 5 mps 752 mmHg 60%
    09:00 +20°C° 0 mm 5 mps 752 mmHg 49%
    10:00 +22°C° 0 mm 6 mps 751 mmHg 39%
    11:00 +24°C° 0 mm 6 mps 751 mmHg 36%
    12:00 +26°C° 0 mm 6 mps 751 mmHg 33%
    13:00 +27°C° 0 mm 7 mps 750 mmHg 30%
    14:00 +27°C° 0 mm 7 mps 749 mmHg 31%
    15:00 +27°C° 0 mm 7 mps 749 mmHg 32%
    16:00 +27°C° 0 mm 7 mps 748 mmHg 33%
    17:00 +24°C° 0 mm 7 mps 748 mmHg 40%
    18:00 +22°C° 0 mm 6 mps 748 mmHg 47%
    19:00 +19°C° 0 mm 6 mps 748 mmHg 54%
    20:00 +17°C° 0 mm 6 mps 748 mmHg 61%
    21:00 +15°C° 0 mm 6 mps 748 mmHg 68%
    22:00 +13°C° 0 mm 5 mps 748 mmHg 74%
    23:00 +13°C° 0 mm 5 mps 747 mmHg 76%

    20 November, Tuesday

    Time Temperature Precipitation Wind Pressure Humidity
    00:00 +12°C° 0 mm 5 mps 747 mmHg 78%
    01:00 +12°C° 0 mm 5 mps 746 mmHg 79%
    02:00 +12°C° 0 mm 5 mps 745 mmHg 78%
    03:00 +12°C° 0 mm 5 mps 745 mmHg 77%
    04:00 +12°C° 0 mm 5 mps 744 mmHg 75%
    05:00 +14°C° 0 mm 5 mps 744 mmHg 70%
    06:00 +15°C° 0 mm 6 mps 744 mmHg 65%
    07:00 +16°C° 0 mm 6 mps 744 mmHg 60%
    08:00 +20°C° 0.1 mm 6 mps 743 mmHg 56%
    09:00 +22°C° 0.1 mm 6 mps 743 mmHg 52%
    10:00 +24°C° 0.1 mm 6 mps 742 mmHg 48%
    11:00 +24°C° 0.2 mm 6 mps 742 mmHg 54%
    12:00 +23°C° 0.2 mm 6 mps 741 mmHg 60%
    13:00 +23°C° 0.2 mm 6 mps 740 mmHg 66%
    14:00 +23°C° 0.5 mm 5 mps 740 mmHg 68%
    15:00 +23°C° 0.5 mm 5 mps 739 mmHg 69%
    16:00 +23°C° 0.5 mm 5 mps 738 mmHg 71%
    17:00 +21°C° 0.6 mm 4 mps 738 mmHg 79%
    18:00 +19°C° 0.6 mm 4 mps 738 mmHg 87%
    19:00 +17°C° 0.6 mm 3 mps 738 mmHg 95%
    20:00 +16°C° 0.6 mm 3 mps 737 mmHg 96%
    21:00 +16°C° 0.6 mm 3 mps 737 mmHg 97%
    22:00 +14°C° 0.6 mm 3 mps 737 mmHg 98%
    23:00 +15°C° 1.7 mm 2 mps 736 mmHg 98%

    21 November, Wednesday

    Time Temperature Precipitation Wind Pressure Humidity
    00:00 +15°C° 1.7 mm 2 mps 736 mmHg 98%
    01:00 +15°C° 1.7 mm 1 mps 735 mmHg 98%
    02:00 +15°C° 4.1 mm 2 mps 734 mmHg 98%
    03:00 +15°C° 4.1 mm 2 mps 733 mmHg 98%
    04:00 +14°C° 4.1 mm 2 mps 733 mmHg 98%
    05:00 +14°C° 2.6 mm 2 mps 732 mmHg 98%
    06:00 +13°C° 2.6 mm 3 mps 732 mmHg 98%
    07:00 +13°C° 2.6 mm 3 mps 732 mmHg 98%
    08:00 +14°C° 0.1 mm 3 mps 731 mmHg 97%
    09:00 +14°C° 0.1 mm 4 mps 731 mmHg 95%
    10:00 +14°C° 0.1 mm 4 mps 731 mmHg 94%
    11:00 +15°C° 0.2 mm 4 mps 731 mmHg 90%
    12:00 +15°C° 0.2 mm 4 mps 731 mmHg 87%
    13:00 +17°C° 0.2 mm 4 mps 731 mmHg 83%
    14:00 +15°C° 0.2 mm 4 mps 731 mmHg 86%
    15:00 +14°C° 0.2 mm 4 mps 731 mmHg 89%
    16:00 +13°C° 0.2 mm 4 mps 731 mmHg 92%
    17:00 +13°C° 0.2 mm 3 mps 731 mmHg 93%
    18:00 +12°C° 0.2 mm 3 mps 731 mmHg 94%
    19:00 +11°C° 0.2 mm 3 mps 732 mmHg 95%
    20:00 +11°C° 0.1 mm 3 mps 732 mmHg 96%
    21:00 +12°C° 0.1 mm 2 mps 732 mmHg 96%
    22:00 +10°C° 0.1 mm 2 mps 732 mmHg 97%
    23:00 +10°C° 0.1 mm 3 mps 732 mmHg 97%

    22 November, Thursday

    Time Temperature Precipitation Wind Pressure Humidity
    00:00 +10°C° 0.1 mm 3 mps 732 mmHg 97%
    01:00 +10°C° 0.1 mm 3 mps 731 mmHg 98%
    02:00 +9°C° 0.1 mm 3 mps 731 mmHg 98%
    03:00 +9°C° 0.1 mm 3 mps 731 mmHg 98%
    04:00 +9°C° 0.1 mm 3 mps 730 mmHg 98%
    05:00 +10°C° 0.1 mm 4 mps 730 mmHg 96%
    06:00 +10°C° 0.1 mm 4 mps 730 mmHg 94%
    07:00 +10°C° 0.1 mm 4 mps 730 mmHg 92%
    08:00 +10°C° 0.4 mm 5 mps 730 mmHg 92%
    09:00 +10°C° 0.4 mm 5 mps 729 mmHg 92%
    10:00 +10°C° 0.4 mm 6 mps 729 mmHg 92%
    11:00 +10°C° 2.1 mm 6 mps 728 mmHg 91%
    12:00 +11°C° 2.1 mm 7 mps 727 mmHg 90%
    13:00 +11°C° 2.1 mm 7 mps 727 mmHg 89%
    14:00 +11°C° 3.4 mm 7 mps 726 mmHg 92%
    15:00 +10°C° 3.4 mm 7 mps 726 mmHg 95%
    16:00 +10°C° 3.4 mm 7 mps 726 mmHg 97%
    17:00 +10°C° 2.3 mm 7 mps 726 mmHg 97%
    18:00 +10°C° 2.3 mm 7 mps 726 mmHg 98%
    19:00 +10°C° 2.3 mm 7 mps 726 mmHg 98%
    20:00 +10°C° 1.6 mm 7 mps 726 mmHg 98%
    21:00 +10°C° 1.6 mm 7 mps 727 mmHg 98%
    22:00 +10°C° 1.6 mm 7 mps 727 mmHg 98%
    23:00 +10°C° 1 mm 7 mps 727 mmHg 98%
    Show more